Regional Weather Roundup
Issued by NWS

Home | Current Version | Previous Version | Graphics & Text | Print | Product List | Glossary Off
Versions: 1 2 3 4 5 6 7 8 9 10 11 12 13 14 15 16 17 18 19 20 21 22 23 24 25 26 27 28 29 30 31 32 33 34 35 36 37 38 39 40 41 42 43 44 45 46 47 48 49 50

210
ASUS43 KDTX 031401
RWRMI
MICHIGAN HOURLY REGIONAL WEATHER ROUNDUP
NATIONAL WEATHER SERVICE DETROIT/PONTIAC MI
900 AM EST SAT DEC 03 2016

NOTE: "FAIR" INDICATES FEW OR NO CLOUDS BELOW 12,000 FEET WITH NO
SIGNIFICANT WEATHER AND/OR OBSTRUCTION TO VISIBILITY.

MIZ047>049-052>055-059>063-066>070-074>076-081>083-031500-
SOUTHEAST LOWER MICHIGAN

CITY           SKY/WX    TMP DP  RH WIND       PRES   REMARKS
ADRIAN         CLOUDY    35  31  85 W3        30.32S
ALMA           CLOUDY    35  31  84 W9        30.30R WCI  28
ANN ARBOR      CLOUDY    33  31  92 SW3       30.31R
BAD AXE        CLOUDY    37  33  89 W7        30.25S WCI  31
CARO           CLOUDY    35  32  90 SW7       30.27R WCI  29
DETROIT CITY   CLOUDY    36  30  79 W7        30.30R WCI  30
DETROIT        CLOUDY    36  30  79 SW9       30.32R WCI  29
FLINT          CLOUDY    35  30  82 W8        30.30R WCI  29
GROSSE ILE     CLOUDY    36  30  80 W5        30.31R WCI  32
HILLSDALE      CLOUDY    32  30  93 W5        30.30R WCI  27
HOWELL         CLOUDY    34  30  84 SW6       30.29R WCI  29

CITY           SKY/WX    TMP DP  RH WIND       PRES   REMARKS
JACKSON        CLOUDY    35  28  75 W5        30.31R WCI  31
LAMBERTVILLE   CLOUDY    37  31  78 W3        30.33R
LANSING        CLOUDY    35  29  78 W8        30.31R WCI  29
LAPEER         NOT AVBL
MASON          CLOUDY    34  31  88 W6        30.31R WCI  29
MONROE         CLOUDY    36  32  85 W5        30.32R WCI  32
MT. CLEMENS    CLOUDY    37  30  78 W10       30.27R WCI  29
PONTIAC        CLOUDY    35  29  78 W7        30.28R WCI  29
PORT HOPE        N/A     40  33  76 NW12      30.22R WCI  33
PORT HURON     CLOUDY    36  32  87 W5        30.28R WCI  32
TRI CITIES     CLOUDY    36  32  85 W12       30.28R WCI  28
MIDLAND        CLOUDY    36  31  83 W3        30.27R
TROY           CLOUDY    37  28  72 W6        30.31R WCI  32
SAGINAW HB     CLOUDY    36  30  80 SW7       30.28R WCI  30
$$
MIZ043>046-050>051-056>058-064>065-071>073-077>080-031500-
SOUTHWEST LOWER MICHIGAN

CITY           SKY/WX    TMP DP  RH WIND       PRES   REMARKS
BATTLE CREEK   CLOUDY    35  29  78 W6        30.31S WCI  30
BENTON HARBOR  CLOUDY    36  26  67 W13       30.33S WCI  27
BIG RAPIDS     CLOUDY    35  30  83 SW5       30.28R WCI  31
COLDWATER      CLOUDY    35  29  80 CALM      30.32R
FREMONT        CLOUDY    33  30  89 CALM      30.31R
HOLLAND        CLOUDY    37  29  72 W7        30.32R WCI  32
GRAND RAPIDS   CLOUDY    36  28  73 W6        30.32R WCI  31
IONIA          CLOUDY    34  31  90 SW7       30.30R WCI  28
KALAMAZOO      CLOUDY    36  27  69 SW6       30.32R WCI  31
LUDINGTON      LGT SNOW  35  32  90 W6        30.30R WCI  30
MARSHALL       CLOUDY    35  30  81 W5        30.31R WCI  31
MOUNT PLEASANT CLOUDY    35  31  86 W7        30.28R WCI  29
MUSKEGON       CLOUDY    37  28  70 VRB3      30.32R
SOUTH HAVEN    CLOUDY    38  30  73 W5        30.32S WCI  34
$$
MIZ016>042-031500-
NORTHERN LOWER MICHIGAN

CITY           SKY/WX    TMP DP  RH WIND       PRES   REMARKS
ALPENA         CLOUDY    36  32  85 W6        30.23R WCI  31
BEAVER ISLAND  CLOUDY    37  32  84 NW3       30.25S
BELLAIRE       CLOUDY    35  34  97 CALM      30.26R
CADILLAC       LGT SNOW  33  32  97 W7        30.23S WCI  26
CHARLEVOIX     CLOUDY    38  32  78 NW6       30.27S WCI  34
FRANKFORT      DRIZZLE   37  36  98 CALM      30.26R
GAYLORD        CLOUDY    34  31  88 CALM      30.22R
GRAYLING       CLOUDY    34  33  97 CALM      30.24R
HARBOR SPRINGS CLOUDY    35  33  91 CALM      30.24R
HOUGHTON LAKE  CLOUDY    35  33  92 W7        30.24R WCI  29
MANISTEE       CLOUDY    37  33  85 SW8       30.28R WCI  31
OSCODA         CLOUDY    38  34  86 W3        30.23S
PELLSTON       CLOUDY    36  31  82 W3        30.24S
ROGERS CITY    CLOUDY    36  32  84 W5        30.24R WCI  32
TRAVERSE CITY  LGT RAIN  37  35  92 CALM      30.25R
$$
MIZ007>008-015-031500-
EASTERN UPPER MICHIGAN

CITY           SKY/WX    TMP DP  RH WIND       PRES   REMARKS
KINROSS        CLOUDY    32  32 100 W7        30.22R WCI  26
MACKINAC ISLAN CLOUDY    34  32  91 W8        30.23R WCI  27
NEWBERRY       CLOUDY    33  32  96 W5        30.22R WCI  28
S. S. MARIE    CLOUDY    33  30  88 CALM      30.20R
$$
MIZ004>006-011>014-085-031500-
CENTRAL UPPER MICHIGAN

CITY           SKY/WX    TMP DP  RH WIND       PRES   REMARKS
MANISTIQUE     CLOUDY    34  32  92 W6        30.26R WCI  29
ESCANABA       CLOUDY    33  29  85 W6        30.28  WCI  28
MENOMINEE      CLOUDY    33  28  81 W7        30.29  WCI  27
SAWYER-GWINN   CLOUDY    30  28  93 W5        30.24R WCI  25
$$
MIZ001>003-009>011-084-031500-
WESTERN UPPER MICHIGAN

CITY           SKY/WX    TMP DP  RH WIND       PRES   REMARKS
IRON MOUNTAIN  CLOUDY    32  26  78 W3        30.24S
HOUGHTON       CLOUDY    30  28  92 SW3       30.23R
COPPER HARBOR    N/A     34  28  79 CALM      30.25R
IRONWOOD       FLURRIES  29  27  92 SW5       30.26S WCI  24
$$

ABBREVIATIONS USED IN REMARKS
   TC - TEMPERATURE IN CELSIUS
  WCI - WIND CHILL INDEX
   HX - HEAT INDEX
  VSB - VISIBILITY





USA.gov is the U.S. government's official web portal to all federal, state and local government web resources and services.